Location: Wayah Bald
(35.1806°N, 83.5603°W)
Time: 06:42:50
(UTC-04:00)

Meteor 1-27 Rocket - Visible Passes

Search period start: 29 July 2014 00:00
Search period end: 08 August 2014 00:00
Orbit: 831 x 910 km, 81.3° (Epoch: 27 July)

Date Brightness Start Highest point End Pass type
(mag) Time Alt. Az. Time Alt. Az. Time Alt. Az.
29 Jul 6.2 22:14:48 10° NW 22:18:46 20° W 22:22:47 10° SW visible
30 Jul 6.3 22:08:47 10° NW 22:12:40 19° W 22:16:35 10° SW visible
31 Jul 6.3 22:02:47 10° NW 22:06:34 19° W 22:10:24 10° SW visible
01 Aug 6.4 21:56:47 10° NW 22:00:28 18° W 22:04:11 10° SW visible
02 Aug 6.4 21:50:47 10° NW 21:54:22 17° W 21:57:59 10° SW visible
03 Aug 6.5 21:44:47 10° NW 21:48:15 17° W 21:51:46 10° SW visible
04 Aug 6.5 21:38:48 10° NW 21:42:09 16° W 21:45:32 10° WSW visible
05 Aug 6.6 21:32:49 10° NW 21:36:03 16° W 21:39:18 10° WSW visible
06 Aug 6.6 21:26:51 10° NW 21:29:57 15° W 21:33:04 10° WSW visible
07 Aug 6.7 21:20:54 10° NW 21:23:50 14° W 21:26:48 10° WSW visible
